SCP
-0 -0 -0 -0 -0 -0 -0 -0 -0 0 -0 0 0 0 0 0 0 0 0 0 0 0 0 0 0 0 0 0 0 0 0 1 0 0 0 1 0 0 0 0 0 0 0
-0 -0 -0 -0 -0 -0 -0 -0 -0 -0 0 0 0 0 0 0 0 0 0 0 0 0 0 0 0 0 0 0 0 0 0 0 0 0 1 0 1 0 0 0 0 0 0
-0 -0 -0 -0 -0 -0 -0 -0 -0 -0 -0 0 0 0 0 0 0 0 0 0 0 0 0 0 0 0 0 0 0 0 0 0 0 0 1 0 0 0 0 0 0 0 0
-0 -0 -0 -0 -0 -0 -0 -0 -0 -0 -0 0 0 0 0 0 0 0 0 0 0 0 0 0 0 0 1 1 0 0 1 1 0 0 0 -0 0 0 0 0 0 0 0
-0 -0 0 -0 -0 -0 -0 -0 -0 -0 -0 0 0 0 1 1 1 0 0 0 0 0 0 0 0 0 1 1 1 1 1 1 1 0 0 -0 1 0 0 0 0 0 0
-0 -0 -0 -0 -0 -0 -0 -0 -0 -0 0 0 0 0 0 1 1 1 1 1 1 0 0 0 0 0 0 1 1 1 1 1 1 0 0 0 0 0 0 0 0 0 0
0 -0 -0 -0 0 0 0 0 0 0 0 0 0 0 0 0 0 0 0 1 1 1 0 1 1 1 1 1 1 1 1 1 0 0 0 0 0 0 1 0 0 0 0
0 -0 -0 -0 0 0 0 0 0 0 0 0 0 0 0 0 0 0 0 0 0 0 0 0 1 1 1 1 1 1 1 1 0 0 0 0 1 1 1 1 1 1 0
0 0 0 0 0 0 0 0 0 0 0 0 0 0 0 0 0 0 0 0 1 1 0 0 1 1 1 1 2 1 1 1 1 0 0 0 2 2 1 1 1 1 1
0 0 0 0 0 0 0 0 0 0 0 0 0 0 0 -0 0 0 0 0 0 1 1 1 1 0 1 0 0 1 1 0 0 0 0 0 2 0 -1 2 2 2 1
0 0 0 0 0 0 0 0 0 -0 0 0 0 0 0 0 0 0 0 0 0 0 0 0 1 1 1 0 0 0 1 0 0 1 0 0 1 1 3 2 2 1 1
0 0 0 0 0 0 0 0 0 0 0 0 0 0 0 0 0 0 0 0 0 0 0 0 0 1 1 1 1 0 1 0 0 0 0 0 1 2 1 2 2 1 1
0 0 0 0 0 0 0 0 0 0 0 0 0 0 0 0 0 0 0 0 0 0 0 0 0 0 1 2 2 1 1 1 1 1 0 1 3 2 2 3 3 2 1
0 0 0 0 0 0 0 0 0 0 0 0 0 0 0 0 0 0 0 0 0 0 0 0 0 0 0 0 1 2 2 3 3 3 2 2 1 3 4 4 3 2 1
0 0 0 0 0 0 0 0 0 0 0 0 0 0 0 0 0 0 0 0 0 0 0 0 0 0 0 0 0 1 1 2 2 2 3 2 3 2 4 6 5 3 2
0 0 0 0 0 0 0 0 0 0 0 0 0 0 0 0 0 0 0 0 0 0 0 0 0 0 0 0 0 0 0 1 1 2 2 2 2 0 1 2 3 2 2
0 0 0 0 0 0 0 0 0 0 0 0 0 0 0 0 0 0 0 0 0 0 0 0 0 0 0 0 0 0 0 0 1 1 1 1 1 1 0 0 -0 1 2
0 0 0 0 0 0 0 0 0 0 0 0 0 0 0 0 0 0 0 0 0 0 0 0 0 0 0 0 0 0 0 0 0 0 0 0 0 0 0 0 0 1 2
0 0 0 0 0 0 0 0 0 0 0 0 0 0 0 0 0 0 0 0 0 0 0 0 0 0 0 0 0 0 0 0 0 0 0 0 0 0 0 0 0 0 1
0 0 0 0 0 0 0 0 0 0 0 0 0 0 0 0 0 0 0 0 0 0 0 0 0 0 0 0 0 0 0 0 0 0 0 0 0 0 0 0 0 0 1
0 0 0 0 0 0 0 0 0 0 0 0 0 0 0 0 0 0 0 0 0 0 0 0 0 0 0 0 0 0 0 0 0 0 0 0 0 0 0 0 0 0 0
0 0 0 0 0 0 0 0 0 0 0 0 0 0 0 0 0 0 0 0 0 0 0 0 0 0 0 0 0 0 0 0 0 0 0 0 0 0 0 0 0 1 1
0 0 0 0 0 0 0 0 0 0 0 0 0 0 0 0 0 0 0 0 0 0 0 0 0 0 -0 0 0 0 0 0 0 0 0 0 1 1 1 1 0 0 1
0 0 0 0 0 0 0 0 0 0 0 0 0 0 0 0 0 0 0 0 0 0 0 0 0 0 0 0 0 0 0 0 0 0 0 0 0 0 0 0 0 0 0
0 0 0 0 0 0 0 0 0 0 0 0 0 0 0 0 0 0 0 0 0 0 0 0 0 0 0 0 0 0 0 0 0 -0 0 0 0 0 0 0 0 0 0
0 0 0 0 0 0 0 0 0 0 0 0 0 0 0 0 0 0 0 0 0 0 0 0 0 0 0 0 -0 0 0 0 0 0 -0 0 0 0 0 0 0 0 0
Wind_Speed_500mb
28 29 23 17 18 17 15 14 19 21 11 10 8 4 5 8 13 14 15 16 17 20 21 20 20 20 23 26 28 31 33 35 33 28 27 17 13 14 13 13 16 17 8
18 24 25 17 16 16 17 16 18 20 14 12 7 8 6 4 9 12 10 13 17 20 21 22 21 19 19 21 27 35 31 29 28 23 23 22 18 17 13 16 33 23 12
20 20 23 17 14 13 14 16 15 16 12 7 6 10 11 10 7 20 22 22 15 20 21 21 19 18 18 21 30 35 27 25 27 28 24 23 21 19 17 25 21 23 14
19 17 23 21 15 13 12 12 12 10 10 7 6 10 10 9 16 22 25 20 19 20 23 23 24 23 21 23 31 38 31 26 27 27 25 26 27 18 20 25 23 19 16
23 18 20 20 18 16 15 13 11 11 10 4 4 7 10 11 11 17 23 24 26 27 27 28 29 28 28 30 32 39 36 32 31 29 25 24 44 26 25 28 25 21 17
20 17 23 23 23 24 20 19 17 14 11 10 9 8 8 9 11 18 24 28 28 30 32 33 33 33 34 35 36 39 41 39 37 32 31 38 31 34 32 31 30 25 22
19 20 26 27 26 24 24 23 22 18 14 13 14 11 20 17 18 19 29 29 28 29 32 33 34 36 39 40 45 41 42 47 47 37 41 41 36 37 35 35 33 29 25
21 21 29 36 32 33 35 36 33 31 28 27 25 21 14 9 14 35 43 40 46 45 39 40 37 36 38 39 46 51 49 47 46 47 49 51 55 51 49 42 43 36 31
21 25 25 30 37 39 40 39 38 37 35 33 32 28 25 23 15 18 26 29 23 44 57 56 52 47 42 40 42 47 57 58 52 46 48 54 51 44 48 52 51 45 41
28 32 33 32 30 28 34 36 36 35 35 33 32 31 31 28 30 27 35 26 22 31 42 50 56 60 63 61 46 46 52 62 63 54 55 59 69 61 74 46 55 49 47
32 32 33 30 26 23 23 32 33 36 35 32 33 33 25 22 25 25 32 40 36 34 35 33 39 46 47 63 75 83 61 66 60 58 60 62 61 47 48 57 54 55 53
32 30 29 27 25 22 22 21 20 23 25 30 36 37 30 33 30 35 32 36 37 41 36 30 32 26 37 51 58 60 80 77 63 63 65 67 77 70 71 83 65 63 61
27 26 24 23 22 19 18 19 20 21 23 25 32 45 32 33 31 32 34 32 32 32 27 29 28 25 34 34 48 54 67 65 65 66 69 73 75 76 60 77 66 69 68
24 23 19 20 18 20 17 20 21 24 25 26 27 37 34 31 32 34 32 35 33 30 32 30 29 30 35 41 40 46 55 60 68 74 77 74 78 85 90 85 75 75 75
22 19 18 19 22 22 22 21 23 25 27 28 28 32 34 33 34 35 34 32 32 32 32 33 35 34 34 38 41 45 42 58 64 75 75 84 75 66 84 93 79 81 84
18 16 16 18 22 21 24 26 25 27 29 29 28 30 34 33 35 36 34 32 32 32 33 33 35 37 38 38 41 43 52 48 52 72 80 82 85 86 71 63 85 80 84
17 15 16 16 21 26 24 26 26 28 26 27 27 29 35 35 38 40 34 34 33 35 34 37 35 34 35 36 40 46 50 52 55 59 64 81 97 95 87 109 121 88 88
13 12 16 16 20 24 26 25 28 29 26 26 26 28 36 34 35 35 30 32 37 31 34 37 43 40 35 36 39 40 45 50 57 62 56 69 94 97 76 87 93 91 85
12 11 13 19 27 26 26 28 26 25 23 24 26 29 36 33 38 34 28 30 34 30 29 35 40 40 43 36 36 40 43 48 52 51 61 58 68 85 90 80 44 67 83
10 11 13 19 30 29 28 28 24 21 21 24 25 30 35 36 37 35 33 32 34 36 31 37 39 38 38 37 44 41 45 46 50 50 51 51 43 54 83 78 66 97 64
9 11 16 23 33 36 27 26 22 22 23 24 25 34 45 47 36 33 32 32 33 33 32 35 38 43 36 34 39 41 37 42 46 44 49 45 45 40 38 47 53 51 73
7 11 16 22 32 33 20 21 19 19 19 23 24 31 36 41 44 32 33 33 32 33 35 33 40 41 41 39 42 43 31 23 22 37 39 42 43 41 41 49 50 49 48
6 10 14 20 24 25 22 18 20 17 17 23 27 30 32 36 35 34 36 32 32 29 31 36 38 40 44 35 33 19 19 19 54 13 19 32 34 31 37 44 51 54 50
5 7 12 17 19 19 23 21 24 21 23 27 25 31 31 39 35 37 36 35 36 31 33 33 34 31 34 38 39 34 23 28 20 35 28 19 23 28 35 36 35 37 40
6 4 10 13 16 16 22 23 19 23 21 23 28 32 33 39 32 41 38 35 33 32 31 29 32 36 34 39 40 41 35 27 13 18 33 24 16 3 3 6 12 22 27
5 3 7 11 13 15 20 21 24 24 26 27 31 29 30 31 33 32 34 34 33 33 37 35 30 34 32 27 35 39 36 34 36 25 33 32 26 9 1 3 4 6 10
Wind_Direction_500mb
21 17 24 44 48 48 35 19 11 29 46 162 145 107 149 181 194 185 176 173 179 182 179 182 183 184 185 192 198 197 199 199 202 208 206 194 174 161 152 147 131 147 196
42 23 15 35 34 37 46 38 21 33 68 111 166 96 44 159 231 216 213 202 201 200 196 192 193 196 201 202 196 185 184 191 197 200 197 200 189 174 162 145 144 193 221
48 49 21 48 46 36 35 41 45 41 62 122 156 214 294 280 217 221 207 227 222 221 215 208 211 213 215 208 197 193 203 211 212 203 197 195 194 181 167 162 164 171 178
63 45 44 39 35 43 36 30 33 49 73 96 167 192 237 236 227 240 234 237 244 239 239 234 230 229 225 222 208 208 213 212 207 202 195 190 201 210 184 174 169 169 166
69 42 49 42 37 35 37 34 23 16 17 52 168 213 216 223 231 235 237 249 257 257 252 251 246 240 231 226 223 216 218 212 209 206 204 224 201 209 207 188 181 176 169
57 55 56 44 44 49 49 45 45 44 20 343 326 322 285 290 267 240 238 247 257 265 263 258 255 250 242 233 229 224 221 218 215 214 222 234 214 214 211 201 191 185 185
71 60 59 53 53 54 57 52 50 46 29 7 352 307 269 282 295 291 290 278 281 282 277 263 257 256 256 248 235 230 230 229 226 226 231 238 227 222 210 212 206 198 199
73 64 59 59 64 65 60 54 48 44 38 33 30 21 15 344 267 261 267 264 278 275 278 276 265 257 252 249 242 237 233 232 235 231 233 237 233 223 228 228 218 209 209
73 72 70 65 55 64 64 55 47 39 34 31 30 28 22 12 340 315 307 291 256 251 263 261 263 261 258 253 243 244 243 240 236 235 241 240 241 226 237 231 226 218 218
96 86 79 77 67 53 52 45 30 29 22 16 20 26 32 3 349 344 327 307 295 278 269 264 267 270 249 269 264 259 252 249 242 241 239 241 248 268 215 231 230 225 224
90 85 85 80 69 60 47 37 23 18 17 15 8 2 8 339 327 329 319 313 310 296 287 283 275 269 261 253 246 255 253 251 245 242 239 239 255 211 228 235 233 230 230
95 86 76 70 47 52 35 35 24 15 6 360 354 350 349 341 323 328 317 315 320 311 309 302 291 278 266 255 252 243 239 242 235 237 243 240 246 249 246 251 239 232 232
88 74 61 62 57 41 21 24 9 4 1 353 352 343 344 342 323 328 325 316 314 309 308 287 289 278 260 257 252 244 241 240 241 238 239 241 242 252 229 235 237 235 232
86 78 64 56 42 34 26 8 4 355 359 350 349 340 349 346 333 331 326 321 318 314 307 305 292 280 278 267 264 266 252 243 235 231 234 241 244 245 247 245 243 238 234
85 72 51 45 33 22 14 10 357 358 345 349 343 342 354 350 336 336 327 325 315 312 307 304 299 294 283 276 274 260 259 252 244 236 242 235 241 247 249 245 242 244 239
85 61 47 28 22 17 6 5 358 346 347 346 348 346 353 352 340 338 336 325 322 316 307 307 299 302 297 285 274 268 265 256 256 245 241 242 238 235 228 229 241 244 243
73 64 53 22 10 6 6 354 346 340 352 348 347 348 350 351 341 338 337 333 325 314 324 302 301 304 295 290 283 273 269 264 257 260 256 248 242 243 247 245 262 248 242
92 57 34 33 11 5 350 350 344 340 349 348 353 349 345 353 345 343 341 329 315 332 314 311 314 316 314 299 291 280 271 268 268 263 263 264 251 254 256 263 223 231 236
82 66 41 2 350 357 350 351 346 347 349 350 351 349 345 349 348 353 343 328 333 324 326 323 323 322 316 311 301 286 276 268 266 260 271 278 255 250 238 265 250 238 231
76 55 18 0 344 1 355 356 355 355 353 356 356 350 340 340 345 353 346 339 348 337 332 325 330 330 328 316 307 299 286 272 262 253 255 260 266 264 250 255 260 243 226
81 356 355 355 344 355 2 3 1 359 355 2 357 349 344 349 346 353 345 344 352 342 331 330 338 338 338 336 329 315 293 270 259 258 246 248 256 265 256 250 251 257 234
60 18 1 354 348 360 11 6 7 359 359 5 356 358 350 354 352 353 358 354 351 342 343 344 349 341 346 339 335 332 318 296 280 258 250 245 246 243 244 243 244 248 251
69 53 25 9 10 9 41 10 17 7 3 358 358 359 355 0 358 1 9 357 356 348 340 348 340 357 344 340 337 347 336 322 332 312 257 243 246 238 241 246 248 250 247
122 61 33 18 24 13 28 25 16 21 13 3 3 357 360 3 11 3 7 2 359 359 344 343 343 348 350 348 347 345 328 303 316 312 308 292 260 253 249 255 252 258 261
141 56 28 25 30 29 30 31 31 29 15 4 8 359 360 5 12 11 11 2 358 350 341 338 335 349 341 353 359 348 344 343 286 325 321 316 277 245 157 181 222 238 249
138 21 14 31 34 37 38 33 25 22 14 12 7 3 358 1 359 356 4 1 1 358 354 350 349 347 345 332 353 359 358 352 343 341 321 317 329 283 83 299 287 259 273
Wind_Speed_850mb
28 29 23 17 18 17 15 14 19 21 11 10 8 4 5 8 13 14 15 16 17 20 21 20 20 20 23 26 28 31 33 35 33 28 27 17 13 14 13 13 16 17 8
18 24 25 17 16 16 17 16 18 20 14 12 7 8 6 4 9 12 10 13 17 20 21 22 21 19 19 21 27 35 31 29 28 23 23 22 18 17 13 16 33 23 12
20 20 23 17 14 13 14 16 15 16 12 7 6 10 11 10 7 20 22 22 15 20 21 21 19 18 18 21 30 35 27 25 27 28 24 23 21 19 17 25 21 23 14
19 17 23 21 15 13 12 12 12 10 10 7 6 10 10 9 16 22 25 20 19 20 23 23 24 23 21 23 31 38 31 26 27 27 25 26 27 18 20 25 23 19 16
23 18 20 20 18 16 15 13 11 11 10 4 4 7 10 11 11 17 23 24 26 27 27 28 29 28 28 30 32 39 36 32 31 29 25 24 44 26 25 28 25 21 17
20 17 23 23 23 24 20 19 17 14 11 10 9 8 8 9 11 18 24 28 28 30 32 33 33 33 34 35 36 39 41 39 37 32 31 38 31 34 32 31 30 25 22
19 20 26 27 26 24 24 23 22 18 14 13 14 11 20 17 18 19 29 29 28 29 32 33 34 36 39 40 45 41 42 47 47 37 41 41 36 37 35 35 33 29 25
21 21 29 36 32 33 35 36 33 31 28 27 25 21 14 9 14 35 43 40 46 45 39 40 37 36 38 39 46 51 49 47 46 47 49 51 55 51 49 42 43 36 31
21 25 25 30 37 39 40 39 38 37 35 33 32 28 25 23 15 18 26 29 23 44 57 56 52 47 42 40 42 47 57 58 52 46 48 54 51 44 48 52 51 45 41
28 32 33 32 30 28 34 36 36 35 35 33 32 31 31 28 30 27 35 26 22 31 42 50 56 60 63 61 46 46 52 62 63 54 55 59 69 61 74 46 55 49 47
32 32 33 30 26 23 23 32 33 36 35 32 33 33 25 22 25 25 32 40 36 34 35 33 39 46 47 63 75 83 61 66 60 58 60 62 61 47 48 57 54 55 53
32 30 29 27 25 22 22 21 20 23 25 30 36 37 30 33 30 35 32 36 37 41 36 30 32 26 37 51 58 60 80 77 63 63 65 67 77 70 71 83 65 63 61
27 26 24 23 22 19 18 19 20 21 23 25 32 45 32 33 31 32 34 32 32 32 27 29 28 25 34 34 48 54 67 65 65 66 69 73 75 76 60 77 66 69 68
24 23 19 20 18 20 17 20 21 24 25 26 27 37 34 31 32 34 32 35 33 30 32 30 29 30 35 41 40 46 55 60 68 74 77 74 78 85 90 85 75 75 75
22 19 18 19 22 22 22 21 23 25 27 28 28 32 34 33 34 35 34 32 32 32 32 33 35 34 34 38 41 45 42 58 64 75 75 84 75 66 84 93 79 81 84
18 16 16 18 22 21 24 26 25 27 29 29 28 30 34 33 35 36 34 32 32 32 33 33 35 37 38 38 41 43 52 48 52 72 80 82 85 86 71 63 85 80 84
17 15 16 16 21 26 24 26 26 28 26 27 27 29 35 35 38 40 34 34 33 35 34 37 35 34 35 36 40 46 50 52 55 59 64 81 97 95 87 109 121 88 88
13 12 16 16 20 24 26 25 28 29 26 26 26 28 36 34 35 35 30 32 37 31 34 37 43 40 35 36 39 40 45 50 57 62 56 69 94 97 76 87 93 91 85
12 11 13 19 27 26 26 28 26 25 23 24 26 29 36 33 38 34 28 30 34 30 29 35 40 40 43 36 36 40 43 48 52 51 61 58 68 85 90 80 44 67 83
10 11 13 19 30 29 28 28 24 21 21 24 25 30 35 36 37 35 33 32 34 36 31 37 39 38 38 37 44 41 45 46 50 50 51 51 43 54 83 78 66 97 64
9 11 16 23 33 36 27 26 22 22 23 24 25 34 45 47 36 33 32 32 33 33 32 35 38 43 36 34 39 41 37 42 46 44 49 45 45 40 38 47 53 51 73
7 11 16 22 32 33 20 21 19 19 19 23 24 31 36 41 44 32 33 33 32 33 35 33 40 41 41 39 42 43 31 23 22 37 39 42 43 41 41 49 50 49 48
6 10 14 20 24 25 22 18 20 17 17 23 27 30 32 36 35 34 36 32 32 29 31 36 38 40 44 35 33 19 19 19 54 13 19 32 34 31 37 44 51 54 50
5 7 12 17 19 19 23 21 24 21 23 27 25 31 31 39 35 37 36 35 36 31 33 33 34 31 34 38 39 34 23 28 20 35 28 19 23 28 35 36 35 37 40
6 4 10 13 16 16 22 23 19 23 21 23 28 32 33 39 32 41 38 35 33 32 31 29 32 36 34 39 40 41 35 27 13 18 33 24 16 3 3 6 12 22 27
5 3 7 11 13 15 20 21 24 24 26 27 31 29 30 31 33 32 34 34 33 33 37 35 30 34 32 27 35 39 36 34 36 25 33 32 26 9 1 3 4 6 10
Wind_Direction_850mb
21 17 24 44 48 48 35 19 11 29 46 162 145 107 149 181 194 185 176 173 179 182 179 182 183 184 185 192 198 197 199 199 202 208 206 194 174 161 152 147 131 147 196
42 23 15 35 34 37 46 38 21 33 68 111 166 96 44 159 231 216 213 202 201 200 196 192 193 196 201 202 196 185 184 191 197 200 197 200 189 174 162 145 144 193 221
48 49 21 48 46 36 35 41 45 41 62 122 156 214 294 280 217 221 207 227 222 221 215 208 211 213 215 208 197 193 203 211 212 203 197 195 194 181 167 162 164 171 178
63 45 44 39 35 43 36 30 33 49 73 96 167 192 237 236 227 240 234 237 244 239 239 234 230 229 225 222 208 208 213 212 207 202 195 190 201 210 184 174 169 169 166
69 42 49 42 37 35 37 34 23 16 17 52 168 213 216 223 231 235 237 249 257 257 252 251 246 240 231 226 223 216 218 212 209 206 204 224 201 209 207 188 181 176 169
57 55 56 44 44 49 49 45 45 44 20 343 326 322 285 290 267 240 238 247 257 265 263 258 255 250 242 233 229 224 221 218 215 214 222 234 214 214 211 201 191 185 185
71 60 59 53 53 54 57 52 50 46 29 7 352 307 269 282 295 291 290 278 281 282 277 263 257 256 256 248 235 230 230 229 226 226 231 238 227 222 210 212 206 198 199
73 64 59 59 64 65 60 54 48 44 38 33 30 21 15 344 267 261 267 264 278 275 278 276 265 257 252 249 242 237 233 232 235 231 233 237 233 223 228 228 218 209 209
73 72 70 65 55 64 64 55 47 39 34 31 30 28 22 12 340 315 307 291 256 251 263 261 263 261 258 253 243 244 243 240 236 235 241 240 241 226 237 231 226 218 218
96 86 79 77 67 53 52 45 30 29 22 16 20 26 32 3 349 344 327 307 295 278 269 264 267 270 249 269 264 259 252 249 242 241 239 241 248 268 215 231 230 225 224
90 85 85 80 69 60 47 37 23 18 17 15 8 2 8 339 327 329 319 313 310 296 287 283 275 269 261 253 246 255 253 251 245 242 239 239 255 211 228 235 233 230 230
95 86 76 70 47 52 35 35 24 15 6 360 354 350 349 341 323 328 317 315 320 311 309 302 291 278 266 255 252 243 239 242 235 237 243 240 246 249 246 251 239 232 232
88 74 61 62 57 41 21 24 9 4 1 353 352 343 344 342 323 328 325 316 314 309 308 287 289 278 260 257 252 244 241 240 241 238 239 241 242 252 229 235 237 235 232
86 78 64 56 42 34 26 8 4 355 359 350 349 340 349 346 333 331 326 321 318 314 307 305 292 280 278 267 264 266 252 243 235 231 234 241 244 245 247 245 243 238 234
85 72 51 45 33 22 14 10 357 358 345 349 343 342 354 350 336 336 327 325 315 312 307 304 299 294 283 276 274 260 259 252 244 236 242 235 241 247 249 245 242 244 239
85 61 47 28 22 17 6 5 358 346 347 346 348 346 353 352 340 338 336 325 322 316 307 307 299 302 297 285 274 268 265 256 256 245 241 242 238 235 228 229 241 244 243
73 64 53 22 10 6 6 354 346 340 352 348 347 348 350 351 341 338 337 333 325 314 324 302 301 304 295 290 283 273 269 264 257 260 256 248 242 243 247 245 262 248 242
92 57 34 33 11 5 350 350 344 340 349 348 353 349 345 353 345 343 341 329 315 332 314 311 314 316 314 299 291 280 271 268 268 263 263 264 251 254 256 263 223 231 236
82 66 41 2 350 357 350 351 346 347 349 350 351 349 345 349 348 353 343 328 333 324 326 323 323 322 316 311 301 286 276 268 266 260 271 278 255 250 238 265 250 238 231
76 55 18 0 344 1 355 356 355 355 353 356 356 350 340 340 345 353 346 339 348 337 332 325 330 330 328 316 307 299 286 272 262 253 255 260 266 264 250 255 260 243 226
81 356 355 355 344 355 2 3 1 359 355 2 357 349 344 349 346 353 345 344 352 342 331 330 338 338 338 336 329 315 293 270 259 258 246 248 256 265 256 250 251 257 234
60 18 1 354 348 360 11 6 7 359 359 5 356 358 350 354 352 353 358 354 351 342 343 344 349 341 346 339 335 332 318 296 280 258 250 245 246 243 244 243 244 248 251
69 53 25 9 10 9 41 10 17 7 3 358 358 359 355 0 358 1 9 357 356 348 340 348 340 357 344 340 337 347 336 322 332 312 257 243 246 238 241 246 248 250 247
122 61 33 18 24 13 28 25 16 21 13 3 3 357 360 3 11 3 7 2 359 359 344 343 343 348 350 348 347 345 328 303 316 312 308 292 260 253 249 255 252 258 261
141 56 28 25 30 29 30 31 31 29 15 4 8 359 360 5 12 11 11 2 358 350 341 338 335 349 341 353 359 348 344 343 286 325 321 316 277 245 157 181 222 238 249
138 21 14 31 34 37 38 33 25 22 14 12 7 3 358 1 359 356 4 1 1 358 354 350 349 347 345 332 353 359 358 352 343 341 321 317 329 283 83 299 287 259 273